x

Conneaut Breakwater Light, Oh (cblo1) Weather Station

9:50pm - Wed 7th Dec 2016 All times are CST. -6 hours from GMT.

  • Wind
    16mph, 20mph gusts
  • Air Temp 36°f
  • Sea Pressure 1015.9mb
  • Conneaut Breakwater Light, Oh
  • Conneaut Breakwater Light, Oh

More Historic Weather Station data

Upgrade to MSW Pro to gain access to the past 30 days of data for over 8000 Wavebouys and Weather Stations around the globe.

Join Pro

Comparision Forecast

View Surf forecast
   
Wed 12/07 9:50pm 16 20 mph 1015.9mb 36f
9:40pm 14 18 mph 1015.9mb 36f
9:31pm 14 20 mph 1015.9mb 36f
9:30pm 14 16 mph 1015.9mb 36f
9:20pm 14 17 mph 1016.3mb 36f
9:10pm 15 20 mph 1016.3mb 36f
9:00pm 15 18 mph 1016.3mb 36f
8:50pm 14 18 mph 1016.3mb 36f
8:40pm 14 17 mph 1016.3mb 36f
8:31pm 15 23 mph 1016.6mb 36f
8:30pm 15 18 mph 1016.6mb 36f
8:20pm 16 18 mph 1016.6mb 36f
8:10pm 17 22 mph 1016.6mb 36f
8:00pm 15 21 mph 1016.6mb 37f
7:50pm 17 23 mph 1016.6mb 37f
7:40pm 15 20 mph 1016.6mb 36f
7:30pm 14 20 mph 1016.9mb 37f
7:20pm 16 20 mph 1016.9mb 37f
7:10pm 14 17 mph 1016.9mb 37f
7:00pm 13 16 mph 1016.9mb 37f
6:50pm 14 18 mph 1016.9mb 37f
6:40pm 15 17 mph 1016.9mb 37f
6:30pm 11 15 mph 1016.9mb 37f
6:20pm 10 14 mph 1016.9mb 37f
6:10pm 10 14 mph 1017.3mb 37f
6:00pm 10 13 mph 1017.3mb 37f
5:50pm 10 14 mph 1017.3mb 37f
5:40pm 11 15 mph 1017.3mb 37f
5:30pm 13 15 mph 1017.3mb 37f
5:29pm 13 20 mph 1017.3mb 37f
5:20pm 13 15 mph 1017.3mb 37f
5:10pm 14 18 mph 1017.3mb 38f
5:00pm 14 17 mph 1017.3mb 38f
4:50pm 14 20 mph 1017.3mb 38f
4:40pm 16 18 mph 1017.3mb 38f
4:30pm 14 16 mph 1017.3mb 38f
4:29pm 13 18 mph 1017.3mb 38f
4:20pm 10 15 mph 1017.3mb 38f
4:10pm 14 16 mph 1016.9mb 38f
4:00pm 14 18 mph 1016.9mb 39f
3:50pm 14 17 mph 1016.6mb 39f
3:40pm 15 17 mph 1016.9mb 39f
3:30pm 14 20 mph 1016.6mb 39f
3:28pm 15 20 mph 1016.6mb 39f
3:20pm 14 17 mph 1016.9mb 39f
3:10pm 11 16 mph 1016.9mb 39f
3:00pm 11 16 mph 1016.9mb 39f
2:50pm 11 16 mph 1016.6mb 39f
2:40pm 14 17 mph 1016.6mb 38f
2:30pm 14 17 mph 1016.6mb 38f
2:28pm 14 24 mph 1016.6mb 38f
2:20pm 15 21 mph 1016.6mb 38f
2:10pm 17 21 mph 1016.6mb 37f
2:00pm 20 24 mph 1016.6mb 37f
1:50pm 17 23 mph 1016.9mb 37f
1:40pm 20 23 mph 1016.6mb 37f
1:30pm 21 24 mph 1016.6mb 37f
1:28pm 20 25 mph 1016.6mb 37f
1:20pm 21 25 mph 1016.9mb 37f
1:10pm 21 24 mph 1016.6mb 36f
1:00pm 16 23 mph 1016.6mb 37f
12:50pm 16 22 mph 1016.6mb 36f
12:40pm 20 23 mph 1016.6mb 36f
12:30pm 20 22 mph 1016.9mb 36f
12:27pm 16 22 mph 1016.6mb 36f
12:20pm 17 20 mph 1016.6mb 36f
12:10pm 16 22 mph 1016.6mb 36f
12:00pm 15 21 mph 1016.6mb 36f
11:50am 11 17 mph 1016.6mb 36f
11:40am 13 16 mph 1016.6mb 36f
11:30am 11 17 mph 1016.6mb 35f
11:27am 15
mph
1016.6mb 35f
11:20am 15 18 mph 1016.6mb 35f
11:10am 14 17 mph 1016.6mb 35f
11:00am 15 23 mph 1016.9mb 35f
10:50am 18 24 mph 1016.9mb 35f
10:40am 24 31 mph 1016.9mb 35f
10:37am 24 30 mph 1016.6mb 35f
10:30am 21 25 mph 1016.6mb 35f
10:26am 20 26 mph 1016.6mb 34f
10:20am 20 26 mph 1016.9mb 34f
10:10am 18 25 mph 1016.9mb 34f
10:00am 20 25 mph 1016.9mb 34f
9:50am 20 25 mph 1016.9mb 34f
9:40am 21 25 mph 1016.9mb 35f
9:30am 21 25 mph 1017.3mb 35f
9:26am 20 26 mph 1017.3mb 35f
9:20am 20 26 mph 1017.3mb 35f
9:10am 20 24 mph 1016.9mb 35f
9:00am 18 26 mph 1017.3mb 35f
8:50am 20 24 mph 1016.9mb 35f
8:40am 20 23 mph 1016.9mb 35f
8:30am 18 23 mph 1016.9mb 35f
8:26am 20 24 mph 1016.6mb 35f
8:20am 20 24 mph 1016.6mb 35f
8:10am 21 24 mph 1016.6mb 35f
7:25am 18 26 mph 1015.9mb 36f
7:00am 17 21 mph 1015.6mb 36f
6:50am 18 24 mph 1015.6mb 36f
6:40am 20 23 mph 1015.6mb 37f
6:30am 21 29 mph 1015.2mb 37f
6:25am 20
mph
1015.6mb 37f
6:20am 22 25 mph 1015.2mb 37f
6:10am 22 25 mph 1015.2mb 38f
6:00am 20 29 mph 1015.2mb 38f
5:52am 23 29 mph 1014.9mb 38f
5:50am 20 24 mph 1015.2mb 38f
5:40am 21 26 mph 1014.9mb 38f
5:30am 21 25 mph 1014.9mb 39f
5:24am 22
mph
1014.6mb 39f
5:20am 22 30 mph 1014.6mb 39f
5:10am 25 31 mph 1014.2mb 39f
5:00am 25 29 mph 1014.2mb 39f
4:50am 24 29 mph 1014.2mb 40f
4:49am 24 29 mph 1013.9mb 40f
4:40am 23 32 mph 1013.9mb 40f
4:30am 26 30 mph 1013.9mb 41f
4:24am 25
mph
1013.9mb 40f
4:20am 26 33 mph 1013.9mb 40f
4:10am 25 32 mph 1013.9mb 41f
3:46am 24 30 mph 1013.2mb 41f
3:00am 28 33 mph 1012.9mb 41f
2:50am 30 34 mph 1012.9mb 42f
2:45am 26 29 mph 1012.9mb 42f
2:40am 29 33 mph 1012.9mb 42f
2:30am 28 33 mph 1012.2mb 42f
2:23am 28
mph
1012.2mb 42f
2:20am 29 36 mph 1012.5mb 42f
2:10am 30 36 mph 1011.9mb 42f
2:00am 28 37 mph 1011.9mb 43f
1:50am 30 34 mph 1011.5mb 43f
1:44am 29
mph
1011.5mb 43f
1:40am 28 34 mph 1011.5mb 43f
1:30am 26 32 mph 1011.2mb 43f
1:23am 30
mph
1010.8mb 43f
1:20am 29 34 mph 1010.8mb 43f
1:10am 28 34 mph 1010.5mb 43f
12:43am 29 30 mph 1010.2mb 44f
12:22am 29
mph
1009.8mb 44f
12:00am 29 32 mph 1009.1mb 44f
Tue 12/06 11:50pm 26 31 mph 1009.1mb 43f
11:43pm 28 31 mph 1009.1mb 43f
11:40pm 29 32 mph 1009.1mb 43f
11:30pm 23 31 mph 1008.8mb 43f
11:22pm 25
mph
1008.8mb 43f
11:20pm 26 32 mph 1008.8mb 43f
11:10pm 26 31 mph 1008.5mb 43f
11:00pm 25 31 mph 1008.5mb 43f
10:50pm 25 29 mph 1008.5mb 42f
10:41pm 24 29 mph 1008.5mb 42f
10:40pm 24 29 mph 1008.5mb 42f
10:30pm 22 29 mph 1008.5mb 42f
10:21pm 23 28 mph 1008.5mb 41f
10:20pm 23 28 mph 1008.5mb 41f
10:10pm 21 25 mph 1008.5mb 41f
10:00pm 16 22 mph 1008.5mb 41f
9:50pm 15 18 mph 1008.1mb 41f
9:40pm 13 16 mph 1008.1mb 40f
9:30pm 13 16 mph 1007.8mb 40f
9:21pm 14 18 mph 1007.8mb 40f
9:20pm 14 18 mph 1007.8mb 40f
9:10pm 13 17 mph 1007.8mb 40f
9:00pm 13 16 mph 1007.8mb 40f
8:50pm 13 16 mph 1007.5mb 40f
8:20pm 15 17 mph 1007.1mb 40f
8:00pm 10 16 mph 1007.1mb 40f
7:50pm 10 17 mph 1006.8mb 39f
6:50pm 5 6 mph 1006.8mb 38f
6:20pm 6 14 mph 1007.1mb 38f
6:00pm 6 11 mph 1007.1mb 38f
5:50pm 7 10 mph 1006.8mb 38f
5:40pm 5 8 mph 1006.8mb 38f
5:30pm 5 8 mph 1007.1mb 38f
5:20pm 3 9 mph 1006.8mb 38f
5:10pm 5 10 mph 1006.8mb 38f
5:00pm 6 9 mph 1006.8mb 38f
4:50pm 9 13 mph 1006.4mb 38f
4:40pm 7 11 mph 1006.4mb 38f
4:30pm 9 14 mph 1006.8mb 38f
4:20pm 9 13 mph 1006.4mb 38f
4:10pm 8 11 mph 1006.4mb 38f
4:00pm 8 11 mph 1006.4mb 38f
3:50pm 6 10 mph 1006.4mb 38f
3:40pm 7 9 mph 1006.4mb 38f
3:30pm 9 13 mph 1006.4mb 38f
3:20pm 9 13 mph 1006.4mb 38f
3:10pm 7 10 mph 1006.8mb 38f
3:00pm 6 13 mph 1006.4mb 38f
2:50pm 8 11 mph 1006.4mb 38f
2:40pm 9 13 mph 1006.8mb 38f
2:30pm 9 14 mph 1006.8mb 38f
2:20pm 9 10 mph 1006.8mb 38f
2:10pm 6 10 mph 1007.1mb 38f
2:00pm 8 10 mph 1007.1mb 38f
1:50pm 8 11 mph 1006.8mb 38f
1:40pm 9 11 mph 1007.1mb 38f
1:30pm 9 11 mph 1007.1mb 38f
1:20pm 9 11 mph 1007.1mb 38f
1:10pm 7 9 mph 1007.1mb 38f
1:00pm 7 11 mph 1007.1mb 38f
12:50pm 8 11 mph 1007.1mb 38f
12:00pm 11 23 mph 1007.8mb 40f
11:50am 8 15 mph 1007.8mb 41f
11:30am 13 15 mph 1008.1mb 41f
11:20am 10 13 mph 1008.5mb 41f
11:10am 10 17 mph 1008.8mb 41f
11:00am 10 17 mph 1008.8mb 41f
10:50am 8 18 mph 1008.8mb 40f
10:40am 13 18 mph 1009.1mb 40f
10:33am 14 23 mph 1009.5mb 40f
10:30am 10 20 mph 1009.5mb 40f
10:20am 10 17 mph 1009.8mb 40f
10:10am 14 18 mph 1010.2mb 40f
10:00am 13 18 mph 1010.2mb 40f
9:50am 14 23 mph 1010.5mb 40f
9:40am 15 21 mph 1010.5mb 40f
9:33am 10 17 mph 1010.8mb 40f
9:30am 9 16 mph 1010.8mb 40f
9:20am 10 15 mph 1010.8mb 39f
9:10am 10 16 mph 1011.2mb 39f
9:00am 14 17 mph 1010.8mb 38f
8:50am 13 16 mph 1011.2mb 38f
8:40am 14 20 mph 1011.5mb 38f
8:32am 14 20 mph 1011.9mb 38f
8:30am 13 17 mph 1011.9mb 38f
8:20am 13 17 mph 1012.2mb 38f
8:10am 11 18 mph 1012.5mb 38f
8:00am 10 14 mph 1012.5mb 37f
7:50am 10 13 mph 1012.9mb 37f
7:40am 10 14 mph 1012.9mb 37f
7:32am 9 18 mph 1012.9mb 37f
7:30am 11 16 mph 1012.9mb 37f
7:20am 13 17 mph 1012.9mb 37f
7:10am 13 18 mph 1013.2mb 37f
7:00am 11 16 mph 1013.2mb 37f
6:50am 11 14 mph 1013.5mb 36f
6:40am 10 13 mph 1013.9mb 36f
6:31am 10 20 mph 1013.9mb 35f
6:30am 10 15 mph 1013.9mb 35f
6:20am 13 15 mph 1013.9mb 35f
6:10am 15 18 mph 1013.9mb 36f
6:00am 16 20 mph 1014.2mb 36f
5:50am 17 20 mph 1014.6mb 36f
5:40am 15 17 mph 1014.9mb 36f
5:31am 14 17 mph 1015.6mb 36f
5:30am 14 17 mph 1015.6mb 36f
5:20am 14 16 mph 1015.6mb 36f
5:10am 13 15 mph 1015.6mb 35f
5:00am 11 15 mph 1015.6mb 35f
4:50am 11 14 mph 1015.6mb 35f
4:40am 13 14 mph 1015.6mb 35f
4:31am 11 15 mph 1015.9mb 35f
4:30am 11 15 mph 1015.9mb 35f
4:20am 13 14 mph 1015.9mb 35f
4:10am 13 15 mph 1016.3mb 34f
4:00am 11 14 mph 1016.6mb 34f
3:50am 10 14 mph 1016.6mb 34f
3:40am 11 14 mph 1016.6mb 34f
3:30am 11 16 mph 1016.6mb 34f
3:20am 10 15 mph 1016.6mb 34f
3:10am 13 14 mph 1016.6mb 35f
3:00am 11 16 mph 1016.9mb 35f
2:50am 13 15 mph 1016.6mb 35f
2:40am 11 14 mph 1017.3mb 35f
2:30am 9 11 mph 1017.6mb 34f
2:20am 9 11 mph 1017.6mb 33f
2:10am 9 10 mph 1017.6mb 33f
2:00am 8 9 mph 1017.6mb 33f
1:50am 7 9 mph 1017.9mb 33f
1:40am 8 9 mph 1017.9mb 34f
1:30am 7 9 mph 1017.9mb 34f
1:29am 8 9 mph 1017.9mb 34f
1:20am 8 9 mph 1017.9mb 33f
1:10am 9
mph
1017.9mb 34f
1:00am 8
mph
1017.9mb 34f
12:50am 8 9 mph 1018.3mb 33f
12:40am 8 9 mph 1018.3mb 34f
12:30am 6 7 mph 1018.3mb 33f
12:29am 6 10 mph 1018.3mb 33f
12:20am 6 8 mph 1018.3mb 33f
12:10am 7 8 mph 1018.6mb 33f
12:00am 7 8 mph 1018.6mb 33f
Mon 12/05 11:50pm 7 9 mph 1019mb 32f
11:40pm 8 10 mph 1019mb 33f
11:30pm 8 9 mph 1019mb 33f
11:28pm 8 10 mph 1019mb 33f
11:20pm 8 9 mph 1019.3mb 33f
11:10pm 9 10 mph 1019.3mb 33f
11:00pm 8 9 mph 1019.3mb 33f
10:50pm 8
mph
1019.3mb 33f
10:40pm 7 9 mph 1019mb 33f
10:30pm 9
mph
1019.3mb 34f
10:28pm 9 10 mph 1019.3mb 33f
10:20pm 8 10 mph 1019.3mb 33f
10:10pm 8
mph
1019.3mb 33f
10:00pm 7 8 mph 1019.3mb 34f
9:50pm 5 7 mph 1019mb 35f
9:40pm 5 7 mph 1019.3mb 35f
9:30pm 6 8 mph 1019.3mb 36f
9:28pm 6 9 mph 1019.3mb 37f
9:20pm 6 7 mph 1019.3mb 37f
9:10pm 6 7 mph 1019.6mb 37f
9:00pm 6 9 mph 1019.3mb 37f
8:50pm 8 9 mph 1019.6mb 37f
8:40pm 7 9 mph 1019.6mb 37f
8:30pm 8 9 mph 1019.6mb 37f
8:27pm 7 9 mph 1019.6mb 37f
8:20pm 7 8 mph 1019.6mb 37f
8:10pm 7 8 mph 1019.3mb 37f
8:00pm 7 8 mph 1019.3mb 37f
7:50pm 7 8 mph 1019mb 38f
7:40pm 7 8 mph 1019.3mb 38f
7:30pm 8 10 mph 1019.3mb 38f
7:27pm 8 10 mph 1019.3mb 38f
7:20pm 8 9 mph 1019.3mb 38f
7:10pm 8 10 mph 1019.3mb 38f
7:00pm 8 10 mph 1019.3mb 38f
6:50pm 8 10 mph 1019.3mb 38f
6:40pm 8 10 mph 1019.3mb 39f
6:30pm 9 11 mph 1019mb 39f
6:26pm 9 16 mph 1019mb 39f
6:20pm 9 13 mph 1019mb 39f
6:10pm 10 13 mph 1019mb 39f
6:00pm 11 14 mph 1019mb 39f
5:50pm 13 16 mph 1019.3mb 39f
5:40pm 13 15 mph 1019.3mb 40f
5:30pm 11 16 mph 1019.3mb 40f
5:26pm 11 18 mph 1019mb 40f
5:20pm 13 15 mph 1019mb 40f
5:10pm 14 18 mph 1019mb 40f
5:00pm 15 17 mph 1019mb 40f
4:50pm 14 17 mph 1018.6mb 40f
4:40pm 15 18 mph 1018.3mb 40f
4:30pm 15 18 mph 1018.6mb 40f
4:26pm 15 21 mph 1018.3mb 40f
4:20pm 13 17 mph 1018.6mb 41f
4:10pm 13 18 mph 1018.3mb 41f
4:00pm 11 16 mph 1018.3mb 41f
3:50pm 15 21 mph 1018.3mb 41f
3:40pm 16 21 mph 1018.3mb 41f
3:30pm 17 20 mph 1018.3mb 41f
3:25pm 14 24 mph 1018.3mb 41f
3:20pm 16 21 mph 1018.3mb 41f
3:10pm 15 23 mph 1018.3mb 41f
3:00pm 18 24 mph 1018.3mb 41f
2:50pm 20 24 mph 1017.9mb 41f
2:40pm 18 23 mph 1017.6mb 42f
2:30pm 18 24 mph 1017.6mb 42f
2:20pm 20 23 mph 1017.6mb 42f
2:10pm 18 24 mph 1017.6mb 42f
2:00pm 18 24 mph 1017.3mb 41f
1:50pm 20 24 mph 1017.3mb 42f
1:40pm 22 25 mph 1017.6mb 42f
1:30pm 20 23 mph 1017.6mb 42f
1:24pm 18 24 mph 1017.6mb 41f
1:20pm 20 24 mph 1017.6mb 41f
1:10pm 18 23 mph 1017.3mb 42f
1:00pm 20 23 mph 1017.3mb 42f
12:50pm 20 23 mph 1016.9mb 42f
12:40pm 18 22 mph 1016.9mb 41f
12:30pm 20 22 mph 1016.9mb 41f
12:24pm 20 25 mph 1016.9mb 42f
12:20pm 20 23 mph 1016.9mb 42f
12:10pm 21 24 mph 1016.9mb 42f
12:00pm 22 25 mph 1016.6mb 42f
11:50am 20 24 mph 1016.9mb 42f
11:40am 22 25 mph 1016.9mb 41f
11:30am 22 26 mph 1017.3mb 42f
11:24am 23 28 mph 1017.3mb 41f
11:20am 23 26 mph 1016.9mb 41f
11:10am 23 28 mph 1017.3mb 41f
11:00am 22 29 mph 1016.9mb 41f
10:50am 24 28 mph 1016.9mb 41f
10:40am 21 28 mph 1016.9mb 41f
10:30am 24 28 mph 1016.9mb 41f
10:23am 24
mph
1016.9mb 41f
10:20am 23 29 mph 1016.9mb 41f
10:10am 20 26 mph 1016.9mb 41f
10:00am 23 29 mph 1016.9mb 42f
9:50am 28 31 mph 1016.9mb 41f
9:40am 26 31 mph 1016.9mb 41f
9:30am 26 31 mph 1016.9mb 41f
9:23am 26
mph
1016.6mb 41f
9:20am 26 33 mph 1016.9mb 41f
9:10am 29 33 mph 1016.9mb 42f
9:00am 28 32 mph 1016.6mb 42f
8:50am 28 33 mph 1016.6mb 42f
8:40am 23 28 mph 1016.6mb 42f
8:30am 23 30 mph 1016.6mb 42f
8:22am 25
mph
1016.6mb 42f
8:20am 22 29 mph 1016.3mb 42f
8:10am 24 30 mph 1016.3mb 41f
8:00am 25 31 mph 1015.9mb 41f
7:54am 26 30 mph 1015.9mb 41f
7:50am 30 31 mph 1015.6mb 41f
7:40am 23 32 mph 1015.9mb 41f
7:30am 26 32 mph 1015.2mb 41f
7:22am 28
mph
1015.2mb 41f
7:20am 25 30 mph 1015.2mb 41f
7:10am 25 32 mph 1015.2mb 41f
7:00am 25 32 mph 1015.2mb 41f
6:53am 24 29 mph 1014.9mb 41f
6:50am 26 31 mph 1015.2mb 41f
6:21am 25
mph
1014.9mb 41f
6:00am 26 31 mph 1014.2mb 40f
5:52am 25 29 mph 1014.2mb 40f
5:50am 28 34 mph 1014.2mb 40f
5:40am 29 33 mph 1013.9mb 40f
5:30am 31 37 mph 1013.9mb 40f
5:23am  -  mph 1013.9mb 40f
5:21am 30
mph
1013.9mb 40f
5:20am 30 37 mph 1013.5mb 40f
5:10am 30 37 mph 1013.2mb 41f
5:00am 31 39 mph 1012.9mb 41f
4:50am 31 38 mph 1012.9mb 42f
4:40am 30 38 mph 1012.5mb 41f
4:30am 32 37 mph 1012.5mb 42f
4:21am 32
mph
1012.2mb 42f
4:20am 32 38 mph 1012.2mb 42f
4:10am 31 39 mph 1011.5mb 42f
4:00am 34 39 mph 1011.2mb 42f
3:50am 31 39 mph 1010.5mb 42f
3:40am 31 36 mph 1010.8mb 42f
3:30am 30 39 mph 1010.8mb 42f
3:20am 32
mph
1010.5mb 42f
3:10am 30 39 mph 1010.5mb 42f
3:00am 34 45 mph 1010.2mb 42f
2:50am 33 41 mph 1010.2mb 43f
2:49am 30 41 mph 1009.8mb 41f
2:40am 23 29 mph 1010.5mb 40f
2:30am 21 26 mph 1010.2mb 39f
2:20am 22 28 mph 1010.2mb 39f
2:10am 20 25 mph 1010.2mb 39f
2:00am 20 25 mph 1010.2mb 39f
1:50am 18 23 mph 1009.8mb 39f
1:40am 18 23 mph 1009.8mb 38f
1:30am 17 22 mph 1009.8mb 38f
1:20am 17 23 mph 1009.5mb 38f
1:10am 18 23 mph 1009.5mb 38f
1:00am 16 26 mph 1009.1mb 38f
12:50am 18 26 mph 1009.1mb 37f
12:40am 18 28 mph 1009.1mb 37f
12:30am 17 25 mph 1008.8mb 37f
12:23am 14 24 mph 1009.1mb 37f
12:20am 15 24 mph 1009.1mb 37f
12:10am 11 17 mph 1009.1mb 37f
12:00am 11 16 mph 1009.5mb 37f
Sun 12/04 11:50pm 9 17 mph 1009.5mb 36f
11:40pm 14 16 mph 1009.1mb 36f
11:30pm 14 16 mph 1009.1mb 36f
11:23pm 13 16 mph 1009.1mb 36f
11:20pm 13 16 mph 1009.1mb 36f
11:10pm 13 15 mph 1009.1mb 35f
11:00pm 13 15 mph 1009.1mb 35f
10:50pm 8 11 mph 1009.8mb 36f
10:40pm 8 13 mph 1009.8mb 36f
10:30pm 10 11 mph 1010.2mb 36f
10:22pm 8 22 mph 1010.5mb 36f
10:20pm 8 15 mph 1010.5mb 36f
10:10pm 9 16 mph 1010.2mb 37f
10:00pm 13 18 mph 1010.2mb 37f
9:50pm 14 16 mph 1009.8mb 37f
9:40pm 13 22 mph 1010.2mb 37f
9:30pm 14 17 mph 1010.2mb 37f
9:22pm 14 21 mph 1010.5mb 38f
9:20pm 15 18 mph 1010.5mb 38f
9:10pm 16 21 mph 1011.2mb 39f
9:00pm 9 14 mph 1011.5mb 40f
8:50pm 7 9 mph 1012.2mb 40f
8:40pm 8 10 mph 1012.2mb 40f
8:30pm 8 10 mph 1012.2mb 40f
8:22pm 7 16 mph 1011.9mb 40f
8:20pm 7 13 mph 1011.5mb 40f
8:10pm 9 15 mph 1011.5mb 40f
8:00pm 10 11 mph 1011.9mb 40f
7:50pm 8 13 mph 1012.2mb 40f
7:40pm 9 16 mph 1012.2mb 40f
7:30pm 10 16 mph 1012.2mb 40f
7:21pm 15 20 mph 1012.2mb 40f
7:20pm 15 20 mph 1011.9mb 40f
7:10pm 11 15 mph 1012.5mb 40f
7:00pm 9 11 mph 1013.5mb 40f
6:50pm 10 15 mph 1013.9mb 40f
6:40pm 9 15 mph 1013.9mb 40f
6:30pm 10 16 mph 1014.6mb 40f
6:21pm 13 16 mph 1014.6mb 40f
6:20pm 13 15 mph 1014.6mb 40f
6:10pm 9 16 mph 1015.2mb 40f
6:00pm 11 13 mph 1015.6mb 40f
5:50pm 8 15 mph 1015.9mb 41f
5:40pm 10 14 mph 1015.9mb 41f
5:30pm 10 14 mph 1015.9mb 41f
5:20pm 9 14 mph 1016.3mb 41f
5:10pm 8 13 mph 1016.9mb 41f
5:00pm 11 15 mph 1017.3mb 41f
4:50pm 13 17 mph 1016.9mb 41f
4:40pm 9 14 mph 1017.3mb 41f
4:30pm 8 10 mph 1017.3mb 41f
4:20pm 7 16 mph 1017.3mb 41f
4:10pm 10 16 mph 1016.9mb 41f
4:00pm 13 16 mph 1017.3mb 41f
3:50pm 9 15 mph 1017.3mb 41f
3:40pm 11 14 mph 1016.9mb 41f
3:30pm 9 14 mph 1017.6mb 42f
3:20pm 10 16 mph 1017.6mb 42f
3:10pm 7 10 mph 1018.3mb 42f
3:00pm 8 13 mph 1018.6mb 42f
2:50pm 11 16 mph 1018.3mb 42f
2:40pm 10 15 mph 1018.6mb 42f
2:30pm 9 14 mph 1018.6mb 42f
2:20pm 9 14 mph 1018.6mb 42f
2:10pm 9 11 mph 1019mb 42f
2:00pm 10 15 mph 1019.3mb 42f
1:50pm 11 14 mph 1019.3mb 42f
1:43pm 9 13 mph 1019.3mb 42f
1:40pm 9 13 mph 1019.3mb 42f
1:30pm 9 10 mph 1019.6mb 42f
1:20pm 7 11 mph 1019.6mb 42f
1:10pm 11 13 mph 1020.3mb 42f
1:00pm 8 10 mph 1020.3mb 41f
12:50pm 8 10 mph 1020.7mb 41f
12:43pm 8 11 mph 1020.7mb 41f
12:40pm 8 11 mph 1020.7mb 41f
12:30pm 9 11 mph 1021mb 41f
12:20pm 3 6 mph 1021mb 41f
12:10pm 7 10 mph 1021mb 41f
12:00pm 3 6 mph 1021.3mb 41f
11:50am 5 8 mph 1022mb 41f
11:43am 7 10 mph 1022mb 41f
11:40am 5 10 mph 1022mb 41f
11:30am 6 9 mph 1022mb 41f
11:20am 7 9 mph 1022mb 41f
11:10am 3 6 mph 1022.4mb 41f
11:00am 5 7 mph 1022.4mb 41f
10:50am 3 7 mph 1022.7mb 41f
10:42am 5 8 mph 1023mb 40f
10:40am 5 8 mph 1022.7mb 40f
10:30am 6 8 mph 1023.4mb 40f
10:20am 7 8 mph 1023.4mb 40f
10:10am 7 8 mph 1023.7mb 40f
10:00am 7 8 mph 1023.7mb 40f
9:50am 6 8 mph 1023.7mb 39f
9:42am 7 10 mph 1024mb 39f
9:40am 7
mph
1024mb 39f
9:30am 6 8 mph 1024mb 39f
9:20am 7 8 mph 1024.4mb 38f
9:10am 8 9 mph 1024.4mb 38f
9:00am 7 10 mph 1024.4mb 38f
8:50am 9 10 mph 1024mb 37f
8:41am 8 11 mph 1024mb 37f
8:40am 8 9 mph 1024mb 37f
8:30am 7 9 mph 1024mb 37f
8:20am 7 10 mph 1024mb 37f
8:10am 8 10 mph 1024mb 37f
8:00am 8 11 mph 1024mb 37f
7:50am 8 9 mph 1024mb 37f
7:41am 8 13 mph 1024mb 37f
7:40am 8 9 mph 1024mb 37f
7:30am 7 11 mph 1024.4mb 37f
7:20am 9 10 mph 1024mb 37f
7:10am 8 11 mph 1024mb 36f
7:00am 10 11 mph 1024mb 37f
6:50am 10 13 mph 1024mb 37f
6:41am 10 15 mph 1024mb 37f
6:40am 10 14 mph 1024mb 37f
6:30am 10 14 mph 1024mb 37f
6:20am 9 11 mph 1024mb 38f
6:10am 10 13 mph 1024mb 37f
6:00am 13 15 mph 1024mb 37f
5:50am 10 13 mph 1024mb 37f
5:40am 9 14 mph 1024mb 37f
5:30am 9 13 mph 1024mb 37f
5:20am 8 10 mph 1024mb 37f
5:10am 8 9 mph 1023.7mb 37f
5:00am 8 9 mph 1023.7mb 37f
4:50am 7 8 mph 1023.7mb 37f